Terug naar catalogus

ARIANE 1 DEB

LostGTO
NORAD 40775·DEBRIS·🇫🇷 France

Gelanceerd Dec 24, 1979 vanaf Guiana Space Centre

Loading…

TLE

VerouderdSource: Space-Track

Epoch: Jul 5, 2024, 20:56 UTC

1 40775U 79104AC  24187.87271102 -.00000548  00000-0 -10973-1 0  9994
2 40775  16.1398  99.7141 7224346 274.5783  13.6979  2.14489025 75932

Volg ARIANE 1 DEB in realtime met AllMySat

Download on the App Store